Regional Weather Roundup
Issued by NWS

Home | Current Version | Previous Version | Graphics & Text | Print | Product List | Glossary On
Versions: 1 2 3 4 5 6 7 8 9 10 11 12 13 14 15 16 17 18 19 20 21 22 23 24 25 26 27 28 29 30 31 32 33 34 35 36 37 38 39 40 41 42 43 44 45 46 47 48 49 50
000
ASUS43 KMKX 250921
RWRWI

WISCONSIN REGIONAL WEATHER ROUNDUP
NATIONAL WEATHER SERVICE MILWAUKEE/SULLIVAN WI
400 AM CDT MON JUL 25 2016

NOTE: "FAIR" INDICATES FEW OR NO CLOUDS BELOW 12,000 FEET WITH NO
SIGNIFICANT WEATHER AND/OR OBSTRUCTIONS TO VISIBILITY.

WIZ001-002-006>008-014>016-023>028-251000-
NORTHWEST WISCONSIN

CITY           SKY/WX    TMP DP  RH WIND       PRES   REMARKS
SUPERIOR ARPT  CLEAR     61  60  96 SW6       29.95R
ASHLAND        CLEAR     64  60  87 SW8       29.93R
HAYWARD        CLEAR     60  58  92 CALM      29.97R
SIREN          CLEAR     63  61  94 W3        29.98R
CUMBERLAND     CLEAR     61  59  94 CALM      29.99S
RICE LAKE      CLEAR     61  58  90 W3        30.00S
CHETEK         CLEAR     64  61  92 CALM      29.99S
LADYSMITH      CLEAR     63  61  92 CALM      30.00R
EAU CLAIRE     CLEAR     66  62  87 SW5       29.98S
MENOMONIE      CLEAR     66  61  84 SW5       30.00S
NEW RICHMOND   PTCLDY    63  60  91 W3        30.01R
OSCEOLA        PTCLDY    64  60  86 CALM      30.03R
$$

WIZ003>005-009-010-017-018-251000-
NORTH CENTRAL WISCONSIN

CITY           SKY/WX    TMP DP  RH WIND       PRES   REMARKS
MANITOWISH WTR PTCLDY    62  62 100 W6        29.95S
ARBOR VITAE    CLEAR     63  61  92 W3        29.96R
WOODRUFF       CLEAR     63  61  92 W3        29.96R
RHINELANDER    CLEAR     61  58  90 W8        29.97R
EAGLE RIVER    CLEAR     64  60  87 W7        29.95R
LAND O LAKES   CLEAR     63  59  88 CALM      29.95R
PHILLIPS       CLEAR     61  60  97 CALM      29.98R
TOMAHAWK       CLEAR     60  58  94 W3        29.98R
MEDFORD        CLEAR     63  63 100 W6        29.98S
MERRILL        CLEAR     63  62  98 W6        29.98R
$$

WIZ029-030-035-036-043>047-251000-
CENTRAL WISCONSIN

CITY           SKY/WX    TMP DP  RH WIND       PRES   REMARKS
WAUSAU         CLEAR     65  62  90 NW9       29.95S
MOSINEE        CLEAR     63  63 100 W8        29.98S
MARSHFIELD     CLEAR     64  60  87 W8        29.98S
STEVENS POINT  CLEAR     65  62  87 W6        29.97S
WAUPACA        CLEAR     68  66  91 W5        29.95S
WAUTOMA        CLEAR     65  63  93 W5        29.97S
WISC RAPIDS    CLEAR     68  61  78 W8        29.98S
CAMP DOUGLAS   CLEAR     62  60  95 W9        29.98S
$$

WIZ011>013-019>022-031-037>040-048>050-251000-
NORTHEAST WISCONSIN

CITY           SKY/WX    TMP DP  RH WIND       PRES   REMARKS
ANTIGO         CLEAR     61  60  97 CALM      29.97R
SHAWANO        CLEAR     67  62  82 W6        29.93S
OCONTO         CLEAR     66  66 100 W5        29.89S
STURGEON BAY   PTCLDY    68  65  90 SW5       29.91R
GREEN BAY      CLEAR     66  65  96 W6        29.92S
MANITOWOC      CLOUDY    71  63  75 W6        29.93R
APPLETON       PTCLDY    64  63  94 W8        29.94R
CLINTONVILLE   CLEAR     64  61  88 W3        29.93S
OSHKOSH        PTCLDY    69  63  81 W6        29.95R
$$

WIZ032>034-041-042-053>061-251000-
SOUTHWEST WISCONSIN

CITY           SKY/WX    TMP DP  RH WIND       PRES   REMARKS
LA CROSSE      CLEAR     69  64  84 CALM      29.99S
SPARTA         CLEAR     59  59  99 CALM      30.00F
VIROQUA        CLEAR     64  64 100 W3        30.02S
BOSCOBEL       CLEAR     67  65  93 CALM      30.00S
PRAIRIE DU CHI CLEAR     68  64  89 CALM      30.01S
PLATTEVILLE    MOCLDY    68  68 100 NW3       30.02R
$$

WIZ056-057-062-063-064-067-068-251000-
SOUTH CENTRAL WISCONSIN

CITY           SKY/WX    TMP DP  RH WIND       PRES   REMARKS
REEDSBURG      PTCLDY    65  65 100 CALM      29.99R
BARABOO/DELLS  PTCLDY    66  63  89 W3        29.99S
LONE ROCK      PTCLDY    67  65  93 W5        30.00S
MINERAL POINT  MOCLDY    68  66  94 NW5       30.01S
MADISON        CLOUDY    71  65  81 NW5       29.97S
MIDDLETON      CLOUDY    69  66  90 W6        29.99F
WATERTOWN      CLOUDY    70  69  96 NW3       29.96F
MONROE         CLOUDY    70  66  88 NW6       29.99S
JANESVILLE     CLOUDY    72  68  88 CALM      29.97F
$$

WIZ051-052-058>065-066-070>072-251000-
SOUTHEAST WISCONSIN

CITY           SKY/WX    TMP DP  RH WIND       PRES   REMARKS
MILWAUKEE      CLOUDY    78  65  63 W5        29.94F HX  80
WAUKESHA       CLOUDY    70  63  78 W6        29.97F
MILWAUKEE/TIMM CLOUDY    72  63  73 W6        29.96S
RACINE         CLOUDY    75  66  73 W5        29.96S
BURLINGTON     CLOUDY    70  68  93 CALM      29.97S
KENOSHA        CLOUDY    73  67  81 W6        29.96F
FOND DU LAC    MOCLDY    70  64  81 W6        29.96R
SHEBOYGAN      CLOUDY    70  65  84 W6        29.93S
WEST BEND      CLOUDY    70  63  78 W6        29.95F
JUNEAU         CLOUDY    68  65  90 W3        29.98S
$$

LSZ147-162-251000-
LAKE SUPERIOR

STATION/POSITION TIME  TEMP    WIND        PRES    WAVE
                       AIR SEA DIR/SP/G            HT/PER
                 (UTC) (F)     (DEG/KT/KT) (MB)    (FT/S)
W MID LAKE BUOY  0850   63 59  260/ 12/ 14 1010.4R   2/ 3
DEVILS ISLAND    0900   64     250/ 13/ 16 1012.5R
SAXON HARBOR     0840   69     220/  6/ 10 1012.9R
$$

LMZ867-665-643>646-251000-
LAKE MICHIGAN

STATION/POSITION TIME  TEMP    WIND        PRES    WAVE
                       AIR SEA DIR/SP/G            HT/PER
                 (UTC) (F)     (DEG/KT/KT) (MB)    (FT/S)
CHAMBERS ISLAND  0800   70     220/  5/  7 1011.5S
N MID LAKE BUOY  0850   69 68  220/  8/  8 1010.3R   2/ 6
NORTHPORT PIER   0800   70     260/  3/  5 1011.2S
KEWAUNEE LAKESHO 0800   72     300/  5/  8 1012.1R
SHEBOYGAN LAKESH 0900   73     280/  9/ 11 1013.3F
PORT WASHINGTON  0800   76     280/  3/  5 1014.2
MILWAUKEE LAKESH 0810   77     290/  4/  5   N/A
S MID LAKE BUOY  0850   74 72  250/ 10/ 10 1012.6S   2/ 4
KENOSHA   LAKESH 0900   76     290/  8/ 11 1013.5F
$$

TC  - TEMPERATURE IN CELSIUS
VSB - VISIBILITY IN STATUTE MILES
WCI - WIND CHILL INDEX
HX  - HEAT INDEX





USA.gov is the U.S. government's official web portal to all federal, state and local government web resources and services.